Weather History for Huntington, WV

Change the Weather History Date:

Thursday, December 16, 2010

  Actual Average Record
Temperature  
Mean Temperature 23 °F 37 °F  
Max Temperature 25 °F 45 °F 67 °F (1984)
Min Temperature 20 °F 28 °F -4 °F (1917)
Degree Days  
Heating Degree Days 42 28  
Month to date heating degree days 612 421  
Since 1 July heating degree days 1424 1308  
Cooling Degree Days 0 0  
Month to date cooling degree days 0 0  
Year to date cooling degree days 1406 1134  
Moisture  
Dew Point 21 °F    
Average Humidity 84    
Maximum Humidity 100    
Minimum Humidity 68    
Precipitation  
Precipitation 0.51 in 0.10 in 2.21 in (2000)
Month to date precipitation 1.13 1.76  
Year to date precipitation 42.07 41.04  
Snow  
Snow 4.90 in - - ()
Month to date snowfall 11.2  
Since 1 September snowfall 11.2  
Snow Depth 5.00 in    
Sea Level Pressure  
Sea Level Pressure 29.76 in    
Wind  
Wind Speed 4 mph (NNE)    
Max Wind Speed 10 mph    
Max Gust Speed 13 mph    
Visibility 4 miles    
Events Fog , Rain , Snow    
T = Trace of Precipitation, MM = Missing Value Source: NWS Daily Summary

Daily Weather History Graph

Daily Weather History Graph

Search for Another Location

Airport:

Trip Planner

Search our weather history database for the weather conditions in past years. The results will help you decide how hot, cold, wet, or windy it might be!

Date:

Astronomy

Dec. 16, 2010 Rise Set
Actual Time 7:40 AM EST 5:11 PM EST
Civil Twilight 7:11 AM EST 5:40 PM EST
Nautical Twilight 6:37 AM EST 6:13 PM EST
Astronomical Twilight 6:05 AM EST 6:46 PM EST
Moon 1:42 PM EST (12/16) 2:59 AM EST (12/16)
Length of Visible Light 10h 29m
Length of Day
9h 30m
Waxing Gibbous, 78% of the Moon is Illuminated
Dec 16
Waxing Gibbous
Dec 21
Full
Dec 27
Last Quarter
Jan 4
New
Jan 12
First Quarter

Hourly Weather History & Observations

Time (EST) Temp. Windchill Dew Point Humidity Pressure Visibility Wind Dir Wind Speed Gust Speed Precip Events Conditions
12:51 AM 21.0 °F - 14.0 °F 74% 29.94 in 10.0 mi Calm Calm - N/A   Overcast
1:51 AM 21.9 °F - 12.9 °F 68% 29.92 in 9.0 mi Calm Calm - N/A Snow Light Snow
2:04 AM 21.2 °F - 15.8 °F 80% 29.89 in 3.0 mi Calm Calm - 0.00 in Snow Light Snow
2:51 AM 21.0 °F 14.6 °F 18.0 °F 88% 29.88 in 1.2 mi ENE 4.6 mph - 0.03 in Snow Light Snow
3:51 AM 21.0 °F 16.2 °F 19.0 °F 92% 29.84 in 1.2 mi East 3.5 mph - 0.02 in Snow Light Snow
3:58 AM 21.2 °F - 19.4 °F 93% 29.81 in 1.5 mi Calm Calm - 0.00 in Snow Light Snow
4:51 AM 21.0 °F 12.4 °F 19.0 °F 92% 29.80 in 1.0 mi ENE 6.9 mph - 0.05 in Snow Light Snow
5:51 AM 21.9 °F 12.5 °F 19.9 °F 92% 29.77 in 1.0 mi ENE 8.1 mph - 0.04 in Snow Light Snow
6:44 AM 21.2 °F 13.6 °F 19.4 °F 93% 29.71 in 0.5 mi ENE 5.8 mph - 0.05 in Fog , Snow Snow
6:51 AM 21.9 °F 13.4 °F 19.9 °F 92% 29.74 in 0.8 mi ENE 6.9 mph - 0.05 in Snow Light Snow
7:51 AM 21.9 °F 14.5 °F 19.9 °F 92% 29.73 in 0.8 mi ENE 5.8 mph - 0.05 in Snow Light Snow
7:58 AM 21.2 °F 13.6 °F 19.4 °F 93% 29.69 in 2.0 mi ENE 5.8 mph - N/A Snow Light Snow
8:08 AM 21.2 °F 13.6 °F 19.4 °F 93% 29.69 in 1.5 mi ENE 5.8 mph - 0.01 in Snow Light Snow
8:51 AM 23.0 °F 15.8 °F 21.0 °F 92% 29.70 in 1.0 mi ENE 5.8 mph - 0.04 in Snow Heavy Snow
9:32 AM 23.0 °F 14.7 °F 21.2 °F 93% 29.67 in 1.0 mi NE 6.9 mph - 0.03 in Snow Heavy Snow
9:37 AM 23.0 °F 14.7 °F 21.2 °F 93% 29.67 in 0.2 mi NE 6.9 mph - 0.04 in Fog , Snow Heavy Snow
9:46 AM 23.0 °F 13.9 °F 21.2 °F 93% 29.67 in 0.5 mi NE 8.1 mph - 0.05 in Fog , Snow Snow
9:51 AM 23.0 °F 14.7 °F 21.0 °F 92% 29.70 in 0.5 mi NE 6.9 mph - 0.06 in Fog , Snow Snow
10:51 AM 23.0 °F 13.9 °F 21.0 °F 92% 29.70 in 0.8 mi NE 8.1 mph - 0.06 in Snow Light Snow
11:07 AM 23.0 °F 14.7 °F 21.2 °F 93% 29.66 in 1.0 mi NE 6.9 mph - 0.01 in Snow Light Snow
11:51 AM 23.0 °F 15.8 °F 21.0 °F 92% 29.69 in 1.5 mi NE 5.8 mph - 0.05 in Snow Light Snow
12:06 PM 23.0 °F 18.4 °F 21.2 °F 93% 29.67 in 3.0 mi NE 3.5 mph - 0.01 in Snow Light Snow
12:14 PM 23.0 °F 15.8 °F 21.2 °F 93% 29.65 in 1.0 mi NE 5.8 mph - 0.01 in Snow Light Snow
12:44 PM 24.8 °F 19.1 °F 21.2 °F 86% 29.65 in 1.0 mi North 4.6 mph - 0.02 in Rain Light Freezing Rain
12:51 PM 24.8 °F 17.9 °F 21.2 °F 86% 29.64 in 4.0 mi NE 5.8 mph - N/A Rain Light Freezing Rain
12:59 PM 24.8 °F 17.9 °F 21.2 °F 86% 29.64 in 4.0 mi North 5.8 mph - 0.00 in Snow Light Snow
1:12 PM 24.8 °F 20.5 °F 21.2 °F 86% 29.65 in 5.0 mi North 3.5 mph - 0.00 in Snow Light Snow
1:39 PM 24.8 °F 17.9 °F 21.2 °F 86% 29.64 in 8.0 mi NNE 5.8 mph - 0.00 in Snow Light Snow
1:51 PM 24.1 °F 17.0 °F 21.0 °F 88% 29.68 in 10.0 mi North 5.8 mph - 0.00 in   Overcast
2:23 PM 24.8 °F 16.9 °F 21.2 °F 86% 29.66 in 9.0 mi North 6.9 mph - 0.00 in Snow Light Snow
2:46 PM 24.8 °F 19.1 °F 21.2 °F 86% 29.67 in 9.0 mi North 4.6 mph - 0.00 in Snow Light Snow
2:51 PM 24.1 °F 17.0 °F 21.0 °F 88% 29.71 in 8.0 mi North 5.8 mph - 0.00 in Snow Light Snow
3:51 PM 25.0 °F - 21.9 °F 88% 29.73 in 8.0 mi Calm Calm - 0.00 in Snow Light Snow
3:58 PM 24.8 °F - 21.2 °F 86% 29.70 in 5.0 mi Calm Calm - N/A   Overcast
4:10 PM 24.8 °F - 23.0 °F 93% 29.71 in 5.0 mi Calm Calm - N/A   Overcast
4:51 PM 25.0 °F 18.1 °F 23.0 °F 92% 29.76 in 2.5 mi North 5.8 mph - N/A   Overcast
5:18 PM 24.8 °F - 23.0 °F 93% 29.75 in 2.5 mi Calm Calm - N/A   Overcast
5:20 PM 24.8 °F - 23.0 °F 93% 29.75 in 3.0 mi Calm Calm - N/A   Overcast
5:41 PM 24.8 °F 20.5 °F 24.8 °F 100% 29.77 in 3.0 mi NNW 3.5 mph - N/A   Overcast
5:51 PM 24.8 °F - 24.8 °F 100% 29.78 in 3.0 mi Calm Calm - N/A   Overcast
6:04 PM 24.8 °F - 24.8 °F 100% 29.78 in 4.0 mi Calm Calm - N/A   Overcast
6:11 PM 24.8 °F - 24.8 °F 100% 29.79 in 6.0 mi Calm Calm - N/A   Overcast
6:51 PM 25.0 °F - 24.1 °F 96% 29.84 in 6.0 mi Calm Calm - N/A   Overcast
7:17 PM 24.8 °F - 23.0 °F 93% 29.82 in 7.0 mi Calm Calm - N/A   Overcast
7:51 PM 24.8 °F 20.5 °F 23.0 °F 93% 29.84 in 7.0 mi WSW 3.5 mph - N/A   Overcast
8:51 PM 25.0 °F - 23.0 °F 92% 29.88 in 4.0 mi Calm Calm - 0.00 in Snow Light Snow
9:19 PM 24.8 °F 16.9 °F 23.0 °F 93% 29.88 in 6.0 mi WNW 6.9 mph - 0.00 in   Overcast
9:51 PM 25.0 °F 19.3 °F 21.9 °F 88% 29.91 in 10.0 mi WNW 4.6 mph - 0.00 in   Overcast
10:35 PM 24.8 °F 20.5 °F 23.0 °F 93% 29.90 in 1.8 mi West 3.5 mph - 0.00 in Snow Light Snow
10:51 PM 25.0 °F - 23.0 °F 92% 29.94 in 1.5 mi Calm Calm - 0.01 in Snow Light Snow
11:51 PM 25.0 °F - 23.0 °F 92% 29.96 in 1.0 mi Calm Calm - 0.01 in Snow Light Snow